Back to catalog

STARLINK-1559

AliveCommunicationsVLEO
NORAD 46077·PAYLOAD·🇺🇸 United States

Launched Aug 7, 2020 from Cape Canaveral Space Force Station

Loading…

Next Passes (next 24 hours)

TLE

FreshSource: CelesTrak SupGP

Epoch: Sep 14, 2026, 11:30 UTC

1 46077C 20055BC  26257.47965278  .00106430  00000+0  20371-2 0  2571
2 46077  53.0174 262.8208 0003433  26.1473 152.7748 15.47399700    10

Track STARLINK-1559 in real time with AllMySat

Download on the App Store